Orbital Elements at Epoch 2459000.5 (2020-May-31.0) TDB
Reference: JPL 13 (heliocentric ecliptic J2000)
Element | Value | Uncertainty (1-sigma) | Units |
e | .03827025428656721 | 3.6095e-08 | |
a | 2.264526769092118 | 1.1448e-08 | au |
q | 2.177862753800225 | 8.2658e-08 | au |
i | 5.986401619717603 | 5.4502e-06 | deg |
node | 187.8750390737764 | 3.9294e-05 | deg |
peri | 272.210845903304 | 8.3468e-05 | deg |
M | 295.2577093120844 | 7.5085e-05 | deg |
tp | 2459224.346431717517 (2021-Jan-09.84643172) | 0.00026001 | TDB |
period | 1244.699786832653 3.41 | 9.4388e-06 2.584e-08 | d yr |
n | .289226369127997 | 2.1933e-09 | deg/d |
Q | 2.351190784384012 | 1.1886e-08 | au |
|
| | Orbit Determination Parameters
Additional Information
|